• In Austria
  • List of Countries
  • For 7 days
  • Water Temperature
  • Satellite Maps
  • Weather Map
  • News
  • Weather Widgets
  • user-avatar
    Login

    Hourly Weather Marrakesh

    Today, 23 January, Tuesday

    Time Temperature Precipitation Wind Pressure Humidity
    00:00 +13°C° 0 mm 1 mps 727 mmHg 50%
    01:00 +13°C° 0 mm 1 mps 727 mmHg 50%
    02:00 +12°C° 0 mm 1 mps 727 mmHg 51%
    03:00 +12°C° 0 mm 1 mps 727 mmHg 51%
    04:00 +12°C° 0 mm 1 mps 727 mmHg 50%
    05:00 +10°C° 0 mm 0 mps 727 mmHg 50%
    06:00 +12°C° 0 mm 0 mps 727 mmHg 48%
    07:00 +14°C° 0 mm 1 mps 727 mmHg 45%
    08:00 +16°C° 0 mm 1 mps 728 mmHg 43%
    09:00 +18°C° 0 mm 1 mps 728 mmHg 37%
    10:00 +20°C° 0 mm 1 mps 728 mmHg 31%
    11:00 +21°C° 0 mm 1 mps 728 mmHg 25%
    12:00 +21°C° 0 mm 2 mps 728 mmHg 24%
    13:00 +21°C° 0 mm 2 mps 728 mmHg 23%
    14:00 +23°C° 0 mm 2 mps 727 mmHg 22%
    15:00 +21°C° 0 mm 2 mps 727 mmHg 27%
    16:00 +19°C° 0 mm 2 mps 727 mmHg 31%
    17:00 +18°C° 0 mm 2 mps 727 mmHg 35%
    18:00 +17°C° 0 mm 2 mps 727 mmHg 40%
    19:00 +16°C° 0 mm 1 mps 727 mmHg 45%
    20:00 +15°C° 0 mm 1 mps 728 mmHg 50%
    21:00 +15°C° 0 mm 1 mps 728 mmHg 53%
    22:00 +14°C° 0 mm 1 mps 728 mmHg 55%
    23:00 +14°C° 0 mm 1 mps 728 mmHg 57%

    Tomorrow, 24 January, Wednesday

    Time Temperature Precipitation Wind Pressure Humidity
    00:00 +13°C° 0 mm 1 mps 727 mmHg 57%
    01:00 +13°C° 0 mm 1 mps 727 mmHg 57%
    02:00 +13°C° 0 mm 1 mps 727 mmHg 57%
    03:00 +12°C° 0 mm 1 mps 727 mmHg 56%
    04:00 +12°C° 0 mm 1 mps 727 mmHg 55%
    05:00 +12°C° 0 mm 1 mps 727 mmHg 55%
    06:00 +13°C° 0 mm 1 mps 727 mmHg 51%
    07:00 +15°C° 0 mm 1 mps 727 mmHg 48%
    08:00 +16°C° 0 mm 1 mps 728 mmHg 44%
    09:00 +19°C° 0 mm 1 mps 728 mmHg 38%
    10:00 +20°C° 0 mm 1 mps 728 mmHg 32%
    11:00 +22°C° 0 mm 1 mps 728 mmHg 26%
    12:00 +21°C° 0 mm 2 mps 728 mmHg 25%
    13:00 +23°C° 0 mm 2 mps 728 mmHg 24%
    14:00 +23°C° 0 mm 2 mps 727 mmHg 23%
    15:00 +21°C° 0 mm 2 mps 727 mmHg 27%
    16:00 +20°C° 0 mm 2 mps 727 mmHg 31%
    17:00 +18°C° 0 mm 2 mps 727 mmHg 35%
    18:00 +17°C° 0 mm 2 mps 727 mmHg 42%
    19:00 +16°C° 0 mm 1 mps 728 mmHg 48%
    20:00 +15°C° 0 mm 1 mps 728 mmHg 54%
    21:00 +15°C° 0 mm 1 mps 728 mmHg 56%
    22:00 +14°C° 0 mm 1 mps 728 mmHg 58%
    23:00 +14°C° 0 mm 1 mps 728 mmHg 60%

    Day after tomorrow, 25 January, Thursday

    Time Temperature Precipitation Wind Pressure Humidity
    00:00 +14°C° 0 mm 1 mps 727 mmHg 62%
    01:00 +13°C° 0 mm 1 mps 727 mmHg 63%
    02:00 +13°C° 0 mm 1 mps 727 mmHg 65%
    03:00 +13°C° 0 mm 1 mps 727 mmHg 66%
    04:00 +12°C° 0 mm 1 mps 727 mmHg 67%
    05:00 +12°C° 0 mm 1 mps 727 mmHg 68%
    06:00 +13°C° 0 mm 1 mps 727 mmHg 65%
    07:00 +14°C° 0 mm 1 mps 728 mmHg 62%
    08:00 +15°C° 0 mm 1 mps 728 mmHg 59%
    09:00 +16°C° 0 mm 1 mps 728 mmHg 53%
    10:00 +19°C° 0 mm 1 mps 728 mmHg 47%
    11:00 +20°C° 0 mm 1 mps 728 mmHg 41%
    12:00 +19°C° 0 mm 2 mps 728 mmHg 39%
    13:00 +20°C° 0 mm 2 mps 727 mmHg 36%
    14:00 +20°C° 0 mm 2 mps 727 mmHg 34%
    15:00 +19°C° 0 mm 2 mps 727 mmHg 38%
    16:00 +18°C° 0 mm 2 mps 727 mmHg 43%
    17:00 +17°C° 0 mm 2 mps 727 mmHg 48%
    18:00 +16°C° 0 mm 2 mps 727 mmHg 54%
    19:00 +15°C° 0 mm 2 mps 728 mmHg 61%
    20:00 +14°C° 0 mm 2 mps 728 mmHg 67%
    21:00 +14°C° 0 mm 2 mps 728 mmHg 71%
    22:00 +13°C° 0 mm 2 mps 728 mmHg 75%
    23:00 +12°C° 0 mm 2 mps 728 mmHg 79%

    26 January, Friday

    Time Temperature Precipitation Wind Pressure Humidity
    00:00 +12°C° 0 mm 2 mps 728 mmHg 80%
    01:00 +12°C° 0 mm 2 mps 727 mmHg 80%
    02:00 +10°C° 0 mm 2 mps 727 mmHg 81%
    03:00 +10°C° 0 mm 2 mps 727 mmHg 81%
    04:00 +10°C° 0 mm 2 mps 727 mmHg 81%
    05:00 +9°C° 0 mm 2 mps 727 mmHg 80%
    06:00 +10°C° 0 mm 2 mps 728 mmHg 78%
    07:00 +11°C° 0 mm 3 mps 728 mmHg 76%
    08:00 +11°C° 0 mm 3 mps 728 mmHg 74%
    09:00 +12°C° 0 mm 4 mps 728 mmHg 69%
    10:00 +13°C° 0 mm 4 mps 728 mmHg 64%
    11:00 +14°C° 0 mm 5 mps 728 mmHg 59%
    12:00 +14°C° 0 mm 5 mps 727 mmHg 57%
    13:00 +14°C° 0 mm 6 mps 727 mmHg 56%
    14:00 +14°C° 0 mm 7 mps 727 mmHg 54%
    15:00 +14°C° 0 mm 6 mps 727 mmHg 54%
    16:00 +13°C° 0 mm 6 mps 727 mmHg 54%
    17:00 +12°C° 0 mm 5 mps 727 mmHg 54%
    18:00 +10°C° 0 mm 5 mps 727 mmHg 55%
    19:00 +10°C° 0 mm 5 mps 728 mmHg 56%
    20:00 +9°C° 0 mm 5 mps 728 mmHg 57%
    21:00 +8°C° 0 mm 4 mps 728 mmHg 57%
    22:00 +8°C° 0 mm 4 mps 728 mmHg 57%
    23:00 +7°C° 0 mm 4 mps 728 mmHg 57%

    27 January, Saturday

    Time Temperature Precipitation Wind Pressure Humidity
    00:00 +8°C° 0 mm 3 mps 728 mmHg 57%
    01:00 +7°C° 0 mm 3 mps 728 mmHg 57%
    02:00 +7°C° 0 mm 3 mps 728 mmHg 57%
    03:00 +7°C° 0 mm 3 mps 728 mmHg 57%
    04:00 +5°C° 0 mm 3 mps 728 mmHg 58%
    05:00 +5°C° 0 mm 3 mps 728 mmHg 58%
    06:00 +7°C° 0 mm 2 mps 728 mmHg 53%
    07:00 +8°C° 0 mm 2 mps 728 mmHg 48%
    08:00 +9°C° 0 mm 2 mps 729 mmHg 43%
    09:00 +11°C° 0 mm 3 mps 729 mmHg 35%
    10:00 +13°C° 0 mm 3 mps 729 mmHg 27%
    11:00 +14°C° 0 mm 4 mps 729 mmHg 19%
    12:00 +15°C° 0 mm 4 mps 728 mmHg 18%
    13:00 +15°C° 0 mm 4 mps 728 mmHg 17%
    14:00 +17°C° 0 mm 4 mps 727 mmHg 15%
    15:00 +15°C° 0 mm 4 mps 727 mmHg 18%
    16:00 +14°C° 0 mm 3 mps 727 mmHg 21%
    17:00 +13°C° 0 mm 3 mps 727 mmHg 24%
    18:00 +12°C° 0 mm 3 mps 727 mmHg 30%
    19:00 +11°C° 0 mm 3 mps 727 mmHg 35%
    20:00 +10°C° 0 mm 3 mps 728 mmHg 41%
    21:00 +9°C° 0 mm 3 mps 727 mmHg 43%
    22:00 +9°C° 0 mm 3 mps 727 mmHg 46%
    23:00 +9°C° 0 mm 2 mps 727 mmHg 48%

    28 January, Sunday

    Time Temperature Precipitation Wind Pressure Humidity
    00:00 +8°C° 0 mm 2 mps 726 mmHg 48%
    01:00 +8°C° 0 mm 2 mps 726 mmHg 49%
    02:00 +7°C° 0 mm 2 mps 725 mmHg 49%
    03:00 +7°C° 0 mm 2 mps 725 mmHg 49%
    04:00 +7°C° 0 mm 2 mps 725 mmHg 49%
    05:00 +7°C° 0 mm 2 mps 724 mmHg 50%
    06:00 +8°C° 0 mm 2 mps 724 mmHg 47%
    07:00 +10°C° 0 mm 1 mps 725 mmHg 44%
    08:00 +11°C° 0 mm 1 mps 725 mmHg 41%
    09:00 +12°C° 0 mm 1 mps 724 mmHg 38%
    10:00 +13°C° 0 mm 2 mps 724 mmHg 35%
    11:00 +14°C° 0 mm 2 mps 724 mmHg 32%
    12:00 +14°C° 0.2 mm 2 mps 723 mmHg 36%
    13:00 +13°C° 0.2 mm 3 mps 722 mmHg 39%
    14:00 +13°C° 0.2 mm 3 mps 721 mmHg 43%
    15:00 +12°C° 0.8 mm 3 mps 721 mmHg 51%
    16:00 +10°C° 0.8 mm 2 mps 721 mmHg 58%
    17:00 +9°C° 0.8 mm 2 mps 721 mmHg 66%
    18:00 +9°C° 0.4 mm 2 mps 722 mmHg 66%
    19:00 +9°C° 0.4 mm 3 mps 722 mmHg 67%
    20:00 +9°C° 0.4 mm 3 mps 723 mmHg 67%
    21:00 +9°C° 0.2 mm 3 mps 723 mmHg 67%
    22:00 +7°C° 0.2 mm 4 mps 723 mmHg 66%
    23:00 +7°C° 0.2 mm 4 mps 723 mmHg 65%
    Show more